[[{"header":{"parameterUnit":"m.s-1","parameterCategory":1,"la1":30.2991,"la2":30.254,"lo1":-89.0895,"lo2":-89.0444,"dy":0.0017,"dx":0.0017,"nx":28,"ny":28,"refTime":"2024-03-05T03:00:00:Z","depth":0,"parameterNumber":2,"parameterNumberName":"U-component_of_WINDS"},"data":[0,0,0,0,0,0,0,0,0,0,0,0,0,0,0,0,0,0,0,0,0,0,0,0,0,0,0,0,0,0,0,0,0,0,0,0,0,0,0,0,0,0,0,0,0,0,0,0,0,0,0,0,0,0,0,0,0,0,-0.2747,-0.2747,0,-0.2761,-0.2761,-0.2761,-0.2752,-0.2751,-0.2751,-0.2751,-0.2765,-0.2766,-0.2767,0,0,0,0,0,0,0,0,0,0,0,0,0,-0.2717,-0.2717,-0.2747,-0.2748,-0.2748,-0.2761,-0.2761,-0.2761,-0.2752,-0.2751,-0.2751,-0.275,-0.2765,-0.2766,-0.2767,0,0,0,0,0,0,0,0,0,0,0,0,0,-0.273,-0.2718,-0.2747,-0.2745,-0.2744,-0.2761,-0.2761,-0.2761,-0.2752,-0.2751,-0.2751,-0.275,-0.2765,-0.2766,-0.2767,-0.2787,0,0,-0.2771,-0.2771,0,0,0,0,0,0,0,0,-0.2729,-0.2731,-0.2745,-0.2745,-0.2745,-0.2754,-0.2756,-0.277,-0.2752,-0.2749,-0.2751,-0.275,-0.2762,-0.2764,-0.2767,-0.2788,-0.2788,-0.2771,-0.2772,-0.2772,-0.2772,0,0,0,0,0,0,0,-0.2728,-0.2731,-0.2753,-0.2745,-0.2745,-0.2744,-0.2745,-0.2758,-0.2759,-0.2749,-0.2749,-0.275,-0.2762,-0.2766,-0.2768,-0.2789,-0.2771,-0.2772,-0.2773,-0.2773,-0.2829,-0.283,0,0,0,0,0,0,-0.2727,-0.273,-0.2752,-0.2753,-0.2735,-0.2745,-0.2746,-0.2752,-0.2759,-0.2759,-0.2751,-0.275,-0.2765,-0.2766,-0.2768,-0.2794,-0.2772,-0.2773,-0.2774,-0.2828,-0.2829,-0.283,0,0,0,0,0,0,-0.2727,-0.273,-0.2752,-0.2741,-0.2744,-0.2746,-0.2752,-0.2752,-0.2756,-0.276,-0.276,-0.2755,-0.2764,-0.2767,-0.2783,-0.2794,-0.2774,-0.2775,-0.2827,-0.2828,-0.2829,-0.2844,0,0,0,0,0,0,-0.2726,-0.2729,-0.2736,-0.2742,-0.2745,-0.2765,-0.2753,-0.2753,-0.2758,-0.2757,-0.2764,-0.2764,-0.2764,-0.2781,-0.2784,-0.2795,-0.2776,-0.2826,-0.2828,-0.2829,-0.2842,-0.2845,-0.2848,0,0,0,0,0,-0.2725,-0.2739,-0.2736,-0.2739,-0.2753,-0.2766,-0.2768,-0.2766,-0.2759,-0.2767,-0.277,-0.2764,-0.2792,-0.2783,-0.2786,-0.2798,-0.2826,-0.2827,-0.2829,-0.2841,-0.2845,-0.2848,0,0,0,0,0,0,-0.2735,-0.274,-0.2737,-0.2753,-0.2759,-0.2764,-0.2773,-0.277,-0.2778,-0.2777,-0.2776,-0.2777,-0.2795,-0.2798,-0.2787,-0.2819,-0.2808,-0.281,-0.2816,-0.282,-0.2822,-0.2821,-0.2777,0,0,0,0,0,-0.2739,-0.2748,-0.2752,-0.2767,-0.277,-0.2771,-0.2777,-0.2776,-0.2782,-0.2785,-0.2788,-0.2795,-0.2806,-0.2813,-0.2823,-0.2843,-0.2845,-0.2853,-0.2855,-0.2858,-0.286,-0.2873,-0.2877,-0.2836,-0.2836,-0.2836,0,0,-0.2747,-0.2751,-0.2757,-0.2769,-0.2773,-0.2784,-0.2773,-0.2785,-0.2793,-0.2786,-0.2802,-0.2806,-0.2814,-0.2833,-0.2841,-0.2836,-0.2872,-0.286,-0.2862,-0.2863,-0.2875,-0.2879,-0.2883,-0.2837,-0.2837,-0.2836,0,0,-0.2769,-0.2772,-0.2785,-0.279,-0.2798,-0.2799,-0.2802,-0.2808,-0.281,-0.2826,-0.2822,-0.2833,-0.285,-0.2857,-0.2862,-0.2889,-0.2885,-0.2892,-0.2907,-0.292,-0.2923,-0.2926,-0.2937,-0.2941,-0.2895,-0.2895,-0.2895,0,-0.2779,-0.2794,-0.2792,-0.2805,-0.2811,-0.2805,-0.282,-0.2825,-0.2835,-0.284,-0.2834,-0.2858,-0.2862,-0.2884,-0.2891,-0.2895,-0.29,-0.2891,-0.2922,-0.2925,-0.2928,-0.2939,-0.2943,-0.2895,-0.2895,-0.2895,-0.2895,0,-0.2807,-0.2818,-0.2828,-0.2838,-0.2845,-0.2858,-0.286,-0.2868,-0.2867,-0.2869,-0.2887,-0.2893,-0.2905,-0.291,-0.2908,-0.2932,-0.2928,-0.2922,-0.2911,-0.2933,-0.2943,-0.2947,-0.2897,-0.2896,-0.2896,-0.2896,0,0,-0.2833,-0.2844,-0.2848,-0.2854,-0.2862,-0.2871,-0.2885,-0.2897,-0.2904,-0.2912,-0.2925,-0.2941,-0.2937,-0.2943,-0.2943,-0.2954,-0.2977,-0.2947,-0.2947,-0.2953,-0.3006,-0.3011,-0.3015,-0.2975,-0.2975,-0.2976,-0.3006,0,-0.2856,-0.288,-0.288,-0.2902,-0.2914,-0.291,-0.2922,-0.293,-0.2933,-0.2944,-0.2948,-0.296,-0.2952,-0.2956,-0.2967,-0.2972,-0.2988,-0.297,-0.2988,-0.2989,-0.2987,-0.302,-0.3025,-0.3053,-0.3009,-0.301,-0.301,0,-0.2886,-0.2895,-0.2919,-0.2928,-0.2932,-0.2943,-0.2956,-0.2966,-0.2975,-0.2977,-0.2985,-0.2984,-0.3,-0.2988,-0.3011,-0.2999,-0.3007,-0.3011,-0.3012,-0.3014,-0.3001,-0.3024,-0.3061,-0.3066,-0.3016,-0.3016,-0.3015,0,-0.2905,-0.2923,-0.294,-0.2945,-0.2955,-0.2964,-0.2969,-0.2977,-0.2985,-0.2996,-0.3001,-0.3014,-0.3021,-0.3032,-0.3034,-0.3026,-0.3058,-0.3047,-0.3062,-0.3062,-0.3069,-0.3068,-0.3108,-0.3072,-0.3072,-0.3072,-0.3072,0,-0.2931,-0.2946,-0.2949,-0.296,-0.2977,-0.2978,-0.2995,-0.3,-0.3008,-0.3021,-0.3018,-0.303,-0.3032,-0.3046,-0.3048,-0.3068,-0.3071,-0.3074,-0.3074,-0.3074,-0.3074,-0.308,-0.3078,-0.3073,-0.3073,-0.3073,-0.3073,0,-0.2955,-0.2957,-0.2976,-0.2985,-0.2988,-0.3,-0.3009,-0.302,-0.3023,-0.3039,-0.3043,-0.3049,-0.3065,-0.3068,-0.3086,-0.3088,-0.3113,-0.3111,-0.3109,-0.3109,-0.3125,-0.3124,-0.317,-0.3177,-0.3136,-0.3136,-0.3136,0,-0.2971,-0.2983,-0.2993,-0.3002,-0.3007,-0.302,-0.3028,-0.303,-0.3039,-0.3052,-0.3062,-0.3077,-0.3089,-0.3115,-0.3121,-0.3136,-0.3135,-0.3151,-0.3137,-0.3138,-0.3137,-0.3137,-0.3139,-0.3153,-0.3154,-0.3154,-0.3154,0,-0.3001,-0.3003,-0.3014,-0.3027,-0.3037,-0.3047,-0.3057,-0.3064,-0.3068,-0.3078,-0.3094,-0.3104,-0.3123,-0.3139,-0.3154,-0.3161,-0.3159,-0.3159,-0.3163,-0.3164,-0.3163,-0.3165,-0.3117,-0.3157,-0.3157,-0.3157,-0.3157,-0.3157,-0.3023,-0.3034,-0.3044,-0.3057,-0.3065,-0.3075,-0.3086,-0.3092,-0.3105,-0.3121,-0.3121,-0.3139,-0.315,-0.3171,-0.3178,-0.3193,-0.3189,-0.3195,-0.3197,-0.3198,-0.32,-0.316,-0.3196,-0.3196,-0.3196,-0.3196,-0.3196,0,-0.3054,-0.3061,-0.3073,-0.3087,-0.3099,-0.3096,-0.3107,-0.3117,-0.3133,-0.3143,-0.3156,-0.3175,-0.3191,-0.32,-0.3216,-0.3227,-0.3227,-0.3231,-0.3231,-0.3233,-0.3203,-0.3198,-0.3231,-0.3231,-0.3231,-0.3231,-0.3231,-0.3231,-0.3072,-0.3091,-0.3093,-0.3117,-0.3124,-0.3141,-0.3148,-0.3158,-0.3166,-0.3188,-0.3201,-0.3207,-0.3217,-0.3235,-0.325,-0.3252,-0.3259,-0.3264,-0.3266,-0.3238,-0.3235,-0.3231,-0.3227,-0.3265,-0.3266,-0.3295,-0.3296,-0.3296]},{"header":{"parameterUnit":"m.s-1","parameterCategory":1,"la1":30.2991,"la2":30.254,"lo1":-89.0895,"lo2":-89.0444,"dy":0.0017,"dx":0.0017,"nx":28,"ny":28,"refTime":"2024-03-05T03:00:00:Z","depth":0,"parameterNumber":3,"parameterNumberName":"V-component_of_WINDS"},"data":[0,0,0,0,0,0,0,0,0,0,0,0,0,0,0,0,0,0,0,0,0,0,0,0,0,0,0,0,0,0,0,0,0,0,0,0,0,0,0,0,0,0,0,0,0,0,0,0,0,0,0,0,0,0,0,0,0,0,2.2318,2.2319,0,2.2362,2.2363,2.2363,2.2391,2.2391,2.2392,2.2392,2.2435,2.2436,2.2437,0,0,0,0,0,0,0,0,0,0,0,0,0,2.2257,2.2258,2.2318,2.2319,2.2319,2.2362,2.2363,2.2364,2.2391,2.2391,2.2392,2.2392,2.2435,2.2436,2.2437,0,0,0,0,0,0,0,0,0,0,0,0,0,2.229,2.2258,2.2318,2.2338,2.2341,2.2362,2.2363,2.2364,2.2391,2.2391,2.2392,2.2392,2.2434,2.2436,2.2437,2.2442,0,0,2.2442,2.2443,0,0,0,0,0,0,0,0,2.2289,2.2293,2.2335,2.2337,2.234,2.2372,2.2357,2.239,2.2391,2.2372,2.2392,2.2392,2.2414,2.2417,2.2425,2.2444,2.2446,2.2442,2.2443,2.2444,2.2444,0,0,0,0,0,0,0,2.2286,2.2291,2.2336,2.2335,2.2338,2.2345,2.235,2.2364,2.2391,2.2374,2.2376,2.2381,2.2415,2.2423,2.2426,2.2446,2.2442,2.2443,2.2444,2.2445,2.2473,2.2472,0,0,0,0,0,0,2.2281,2.2289,2.2334,2.2337,2.2314,2.2346,2.2351,2.2361,2.2391,2.2396,2.238,2.2382,2.242,2.2424,2.2427,2.2435,2.2444,2.2445,2.2446,2.2473,2.2472,2.2472,0,0,0,0,0,0,2.2279,2.2285,2.2332,2.2314,2.232,2.2347,2.2357,2.2362,2.237,2.2396,2.2401,2.2384,2.2421,2.2425,2.2438,2.2437,2.2446,2.2447,2.2473,2.2473,2.2472,2.2451,0,0,0,0,0,0,2.2278,2.2284,2.2286,2.2313,2.2321,2.2343,2.2357,2.2362,2.2373,2.2375,2.24,2.2405,2.2421,2.2436,2.244,2.2439,2.2448,2.2473,2.2473,2.2472,2.2452,2.245,2.2448,0,0,0,0,0,2.2275,2.2278,2.2286,2.2291,2.2324,2.2343,2.2347,2.2367,2.2372,2.2375,2.2392,2.2404,2.2437,2.2437,2.2442,2.2442,2.2473,2.2473,2.2472,2.2452,2.245,2.2448,0,0,0,0,0,0,2.2248,2.2281,2.2291,2.2302,2.232,2.2347,2.2351,2.2363,2.2379,2.238,2.2403,2.2409,2.2419,2.2432,2.2432,2.2448,2.2456,2.2457,2.244,2.2438,2.2436,2.2433,2.245,0,0,0,0,0,2.2244,2.2257,2.2285,2.2292,2.23,2.2324,2.2333,2.2346,2.2365,2.2372,2.239,2.2407,2.2421,2.243,2.2445,2.2454,2.246,2.2456,2.2454,2.2453,2.2453,2.2459,2.2458,2.2471,2.2471,2.2471,0,0,2.2235,2.2254,2.2261,2.2287,2.2302,2.2314,2.233,2.2342,2.2352,2.2374,2.2388,2.2401,2.2422,2.2433,2.2439,2.2444,2.2451,2.2452,2.2451,2.2452,2.2459,2.2458,2.2456,2.2471,2.2471,2.2471,0,0,2.2224,2.224,2.2248,2.2263,2.2286,2.2302,2.2304,2.233,2.2341,2.2355,2.2372,2.2384,2.2407,2.2422,2.2432,2.2428,2.244,2.2432,2.2423,2.2429,2.2428,2.2427,2.2426,2.2426,2.2432,2.2432,2.2432,0,2.2209,2.2229,2.2251,2.2263,2.2274,2.2295,2.2304,2.2317,2.2343,2.2351,2.2356,2.2387,2.2402,2.2418,2.2417,2.2425,2.2428,2.2429,2.2427,2.2426,2.2426,2.2425,2.2425,2.2431,2.2431,2.2431,2.2432,0,2.221,2.2224,2.2228,2.2254,2.2265,2.2275,2.2298,2.2307,2.232,2.2336,2.235,2.237,2.2389,2.2394,2.2406,2.2411,2.2414,2.2422,2.2431,2.2423,2.2423,2.2423,2.243,2.243,2.243,2.2431,0,0,2.2184,2.2222,2.2223,2.2235,2.2263,2.2273,2.2285,2.2304,2.2312,2.2329,2.234,2.236,2.2369,2.238,2.2394,2.24,2.2396,2.2408,2.2409,2.2406,2.2404,2.2397,2.2397,2.2404,2.2405,2.2405,2.2402,0,2.2177,2.2199,2.2219,2.2234,2.2247,2.2268,2.2278,2.2296,2.2311,2.2324,2.234,2.2354,2.2364,2.2372,2.2378,2.2395,2.2396,2.2396,2.2414,2.2414,2.2408,2.2396,2.2389,2.2386,2.2402,2.2402,2.2402,0,2.2173,2.2191,2.2207,2.2234,2.224,2.2248,2.2269,2.2281,2.2301,2.2312,2.2326,2.2341,2.2354,2.2361,2.2379,2.2379,2.2387,2.2397,2.2397,2.24,2.2408,2.2399,2.2386,2.2385,2.2402,2.2402,2.2402,0,2.2153,2.218,2.2194,2.2204,2.2235,2.2241,2.2254,2.2275,2.2286,2.2303,2.2311,2.2329,2.2339,2.2353,2.2373,2.2376,2.2389,2.2398,2.2398,2.2397,2.24,2.2399,2.2388,2.2405,2.2405,2.2405,2.2405,0,2.2144,2.2153,2.2185,2.2193,2.2204,2.2227,2.2237,2.2253,2.2271,2.2283,2.2302,2.2312,2.2337,2.2351,2.2366,2.2379,2.2383,2.2392,2.2396,2.2391,2.239,2.2397,2.2398,2.2405,2.2405,2.2405,2.2405,0,2.2123,2.2145,2.2161,2.219,2.2198,2.2204,2.2229,2.2238,2.2254,2.2268,2.2273,2.2299,2.2315,2.2337,2.236,2.237,2.2382,2.2388,2.2375,2.2377,2.2376,2.2376,2.2369,2.237,2.2386,2.2386,2.2386,0,2.2116,2.2124,2.2154,2.2163,2.2176,2.2191,2.2203,2.2226,2.2237,2.2262,2.2267,2.2286,2.2302,2.2328,2.2348,2.2366,2.2373,2.2369,2.2376,2.237,2.2373,2.2373,2.2374,2.2367,2.2367,2.2367,2.2367,0,2.2102,2.2113,2.2129,2.2149,2.2162,2.2179,2.2196,2.2203,2.223,2.2241,2.2259,2.2272,2.2296,2.2314,2.2335,2.2348,2.2362,2.2365,2.2366,2.236,2.2353,2.2357,2.2371,2.2365,2.2365,2.2365,2.2365,2.2365,2.2088,2.2096,2.2119,2.2136,2.2152,2.2169,2.2179,2.2197,2.2212,2.2234,2.2247,2.2264,2.2286,2.2315,2.2328,2.2342,2.2347,2.2349,2.2349,2.2349,2.2348,2.235,2.2346,2.2346,2.2346,2.2346,2.2346,0,2.2075,2.2091,2.2107,2.2132,2.2145,2.2158,2.2178,2.2189,2.2204,2.2223,2.2239,2.226,2.2278,2.23,2.2319,2.2326,2.2333,2.233,2.233,2.2333,2.2342,2.2339,2.2325,2.2325,2.2325,2.2325,2.2325,2.2325,2.207,2.2085,2.2098,2.2121,2.2137,2.2155,2.2166,2.2181,2.2196,2.2219,2.2234,2.2248,2.2269,2.229,2.2307,2.2313,2.232,2.2315,2.2323,2.2331,2.2332,2.2334,2.2332,2.2316,2.2316,2.2314,2.2314,2.2314]}]]